This is the latest recevied weather packets stored in our database for station/object KC8YYF. If no packets are shown the sender has not sent any weather packets the latest 10 day(s).
| Time | Temp. | Humidity | Pressure | Rain* | Wind** | Luminosity | Snow |
|---|---|---|---|---|---|---|---|
| 1777650126 | 7.22° C | 92% | 1013 hPa | 0 mm | - | 32 W/m² | - |
| 1777649823 | 7.22° C | 92% | 1012.8 hPa | 0 mm | - | 24 W/m² | - |
| 1777649520 | 7.22° C | 92% | 1013.2 hPa | 0 mm | - | 34 W/m² | - |
| 1777649216 | 7.22° C | 92% | 1013.2 hPa | 0 mm | - | 32 W/m² | - |
| 1777648913 | 7.22° C | 92% | 1013.2 hPa | 0.51 mm | - | 48 W/m² | - |
| 1777648610 | 7.22° C | 92% | 1013.5 hPa | 0.51 mm | - | 48 W/m² | - |
| 1777648307 | 7.22° C | 92% | 1013.2 hPa | 0.51 mm | - | 39 W/m² | - |
| 1777648003 | 6.67° C | 92% | 1013.2 hPa | 0.51 mm | - | 42 W/m² | - |
| 1777647700 | 6.67° C | 91% | 1013.1 hPa | 0 mm | - | 26 W/m² | - |
| 1777647395 | 7.22° C | 90% | 1013.1 hPa | 0 mm | - | 15 W/m² | - |
| 1777647094 | 7.22° C | 89% | 1013.2 hPa | 0 mm | - | 17 W/m² | - |
| 1777646789 | 7.22° C | 88% | 1013.6 hPa | 0.51 mm | - | 35 W/m² | - |
| 1777646484 | 7.22° C | 87% | 1013.5 hPa | 0.51 mm | - | 29 W/m² | - |
| 1777646181 | 7.78° C | 83% | 1013.6 hPa | 0 mm | - | 51 W/m² | - |
| 1777645879 | 7.22° C | 81% | 1013.7 hPa | 0 mm | - | 54 W/m² | - |
| 1777645575 | 7.78° C | 82% | 1013.7 hPa | 0 mm | - | 18 W/m² | - |
| 1777645271 | 7.78° C | 81% | 1014 hPa | 0 mm | - | 49 W/m² | - |
| 1777644967 | 7.78° C | 82% | 1013.7 hPa | 0 mm | - | 153 W/m² | - |
| 1777644665 | 7.22° C | 80% | 1013.9 hPa | 0 mm | - | 73 W/m² | - |
| 1777644361 | 7.22° C | 80% | 1013.9 hPa | 0 mm | - | 62 W/m² | - |
| 1777644057 | 6.67° C | 80% | 1014 hPa | 0 mm | - | 48 W/m² | - |
| 1777643754 | 7.22° C | 82% | 1013.7 hPa | 0 mm | - | 35 W/m² | - |
| 1777643452 | 6.67° C | 81% | 1013.5 hPa | 0 mm | - | 31 W/m² | - |
| 1777643148 | 6.67° C | 83% | 1013.6 hPa | 0 mm | - | 49 W/m² | - |
| 1777642845 | 6.67° C | 82% | 1013.7 hPa | 0 mm | - | 44 W/m² | - |
* Rain latest hour (hover to see other rain measurements)
** Current wind speed in m/s (hover to see current wind gust speed)